星链-6332 (STARLINK-6332 )

导读

STARLINK-6332是美国太空探索技术公司星链计划中的一颗卫星,于2023年7月16日发射升空。星链项目旨在构建全球卫星互联网星座,该卫星入轨后承担卫星通信服务相关任务,为全球多地用户提供宽带网络接入能力,补充完善星链星座的全球覆盖与服务效能。

基本信息
目录编号:
57339
目录名称:
STARLINK-6332
国际标识:
2023-099M
轨道中心:
EARTH
卫星名称:
星链-6332
卫星全名:
星链-6332 (STARLINK-6332 )
卫星状态:
在轨 (已飞行1147 天)
发射日期:
2023-07-16 UTC
国别 :
美国 (US)
星等 :
--
轨道信息
数据来源 国际轨道数据
星历时间: 2026-09-05T13:33:51+0800
8小时前
查看轨道信息
半长轴: 6861.2km
偏心率: 0.000103
轨道倾角: 43.003°
近地点辐角 270.420°
升交点赤经 318.565°
平近点角 89.653°
近地点: 482.356km
远地点: 483.77km
周期: 94.267分钟
每日圈数: 15.275755
详细信息
固有亮度:
5
最大亮度:
2.5
卫星平台:
Starlink v1.5
覆盖范围:
全球
运营商:
太空探索技术公司
运营商所在国:
美国
制造商(研发单位):
太空探索技术公司
制造商所在国:
美国
使用方式:
暂无
卫星简介
星链(Starlink)计划是由太空探索技术公司(SpaceX)提出的一个巨型低轨卫星互联网星座项目,计划在2019年至2024年间在太空搭建由约1.2万颗卫星组成的“星链”网络,其中1584颗将部署在地球上空550千米处的近地轨道,并从2020年开始工作。该卫星仍在工作。
2D轨道图
3D轨道图
轨道高度分析图
轨道倾角分析图
轨道综合分析图
查看轨道综合分析图
交会数据列表
事件ID 空间交会对象 最接近时刻(TCA) 交会距离 交会风险概率(CRP) 交会风险指数(CRI) 操作
CDM_260908-051105-733906-214721
2026-09-08T
05:11:29+0000
0.596 km
远距离
8.730502E-5 中风险 0.74
CDM_260907-155105-733906-214721
2026-09-07T
15:51:10+0000
0.769 km
远距离
4.091955E-5 中风险 0.67
CDM_260907-094505-733906-784121
2026-09-07T
09:45:54+0000
0.558 km
远距离
3.782998E-5 中风险 0.67
CDM_260907-072405-733906-784122
2026-09-07T
07:24:41+0000
0.690 km
远距离
1.937594E-5 中风险 0.61
CDM_260907-123605-733906-681121
2026-09-07T
12:36:32+0000
1.160 km
极远距离
1.20405E-5 中风险 0.57
CDM_260907-141705-733906-214721
2026-09-07T
14:17:01+0000
1.131 km
极远距离
1.108954E-5 中风险 0.56
CDM_260907-110205-733906-681121
2026-09-07T
11:02:23+0000
1.192 km
极远距离
1.097414E-5 中风险 0.56
CDM_260907-231005-307205-733921
2026-09-07T
23:10:20+0000
2.671 km
极远距离
1.459684E-6 低风险 0.38
CDM_260908-033705-733906-214721
2026-09-08T
03:37:20+0000
2.500 km
极远距离
1.188524E-6 低风险 0.37
CDM_260907-172505-733906-214721
2026-09-07T
17:25:20+0000
2.712 km
极远距离
1.047362E-6 低风险 0.35